Startseite

Hier einige der aktuellen Wetterdaten aus Weinheim, 5 minütlich aus meiner Wetterstation vom Balkon 😉

Wetter in Weinheim / Weinheim Weather …

Daten vom:27.05.2022 17:55

Temp: 19.8 ° C

Feuchte:60 %

Regen heute:0mm

Regen Woche: 3 mm

Regen Monat: 7.9 mm

Regen Jahr : 173.7 mm

Fri 27.05.2022, Sonnenaufgang : 04:31

Fri 27.05.2022, Sonnenuntergang : 20:13

Alderle, die Sunn schoint!

Minimaltemperatur der letzten 24 Stunden: 14.7 ° C am 27.05.2022 06:20

Maximaltemperatur der letzten 24 Stunden 21 ° C am 26.05.2022 18:40

Letzter registrierter Niederschlag :-24.05.2022 09:30

Datum TemperaturFeuchte Regenrate TagesNs. WindBoe
27.05.2022 17:5519.8 C 60 %0000
27.05.2022 16:5519.9 C 61 %000.41.5
27.05.2022 15:5518.6 C 66 %001.22.6
27.05.2022 14:5517.8 C 69 %000.21
27.05.2022 13:5517.2 C 72 %0000
27.05.2022 12:5516.8 C 73 %0000
27.05.2022 11:5516.2 C 76 %0000
27.05.2022 10:5516.1 C 75 %0000
27.05.2022 09:5516.2 C 73 %000.41
27.05.2022 08:5515.5 C 76 %000.62
27.05.2022 07:5515.4 C 75 %0000
27.05.2022 06:5515.1 C 77 %0000
27.05.2022 05:5514.8 C 79 %0000
27.05.2022 04:5515.1 C 77 %0000
27.05.2022 03:5515 C 76 %0000
27.05.2022 02:5515.5 C 74 %0000
27.05.2022 01:5015.7 C 71 %0000
27.05.2022 00:5016.9 C 66 %0000
26.05.2022 23:5017.3 C 63 %0000
26.05.2022 22:5017.4 C 63 %0000
26.05.2022 21:5018.5 C 59 %0000
26.05.2022 20:5019.6 C 55 %000.31
26.05.2022 19:5020.8 C 51 %000.81.5
26.05.2022 18:5020.8 C 50 %0022.6
26.05.2022 17:5020.6 C 49 %0000

Der Server holt alle 5 Minuten Daten von der Wetterstation ab.

kachelmannwetter.com

https://childthemewp.com